STARLINK-11600, 63114

Orbit data source: Space-Track

STARLINK-11600, 63114 is a payload satellite owned by SpaceX/Seattle (US) in LEO that was launched on Thu, 27 Feb 2025 UTC via an FALCON 9 launch vehicle from the Air Force Eastern Test Range (AFETR). Payload-class satellites include a variety of spacecraft equipped with specific instruments for various scientific and technological missions. These include communications satellites like Starlink; space stations such as the ISS; scientific satellites like the Hubble; Earth observation satellites from companies like Planet Labs, Umbra, and HawkEye 360; GPS; miniature CubeSats for education and research; and military/defense satellites.

Loading next visibility...
Identifier
63114, 2025-039L
Orbit
LEO
Country
Flag of USUS
Related business
Manufacturer
SpaceX/Seattle
Mission
Operational Commercial Communications
Bus & Motor
STARLINK V2MD, Unknown motor
Mass
960 kg wet, ~910 kg dry
Launch date (UTC)
2025-02-27 (7 months ago)
Launch vehicle
FALCON 9
Launch site
Air Force Eastern Test Range (AFETR)
Object type
Payload
Rocket body
Debris
Shape & HBR
Box + 2 Pan, 14.5 m
Radar Cross Section
36.964 m², Large (>1 m²)

Expand to show TLE details & history
Last TLE update: 22 hours ago

TLE from 22 hours ago
0 STARLINK-11600
1 63114U 25039L   25257.35075636  .00152109  00000-0  11654-2 0  9997
2 63114  42.9993 219.6020 0001712 255.3976 104.6702 15.70878925 31883
Epoch: 2025-09-14T08:25Z
TLE epoch observation values (Epoch: 2025-09-14T08:25:05.349Z)
Latitude
-0.00001°
Longitude
99.75868°
Altitude
356.447 km
Speed
7.697 km/s
True Right ascension
14h 38m 24s
True Declination
0° 00' 00"
Sunlit
Object was in daylight at epoch
Visualization orbit readout
Latitude
Unknown
Longitude
Unknown
Altitude
Unknown
Speed
Unknown
Apparent Right ascension
Unknown
Apparent Declination
Unknown
Sunlit
N/A
Visualization observer readout
Local Sidereal Time
23:30:52
Azimuth
Unknown
Elevation
Unknown
Doppler factor
Unknown
Orbital elements
Apogee altitude
359.519 km
Perigee altitude
357.212 km
Semi-major axis
6,736.503 km
Eccentricity
0.00017
Inclination
42.9993°
RAAN
219.602°
Arg. of periapsis
255.3976°
True anomaly
104.68918°
Mean anomaly
104.6702°
Eccentric anomaly
104.67969°
Mean motion
3.92547 °/min
Orbital period
91.71 mins
BSTAR
0.0011654
Loading maneuver chart data...
Computing Atmospheric mass density...
Loading historical data...
Loading historical data...
Loading historical data...
Loading historical data...
Loading historical data...
Loading historical data...
Loading historical data...

Documentation

Showing up to 5 results
|